Home > Weather > Podgorica > Past weeks

Flag for Montenegro Past Weather in Podgorica, Montenegro — Yesterday and Last 2 Weeks

Now
84 °F

Scattered clouds.


Feels Like: 83 °F
Forecast: 71 / 92 °F
Wind: 5 mph from East

Location: Podgorica Titograd

Current Time: Aug 24, 2016 at 10:43:21 AM

Latest Report: Aug 24, 2016 at 10:00 AM


Visibility: N/A

Pressure: 30.01 "Hg

Humidity: 37%

Dew Point: 55 °F

Location of PodgoricaLocation

Past Weather in Podgorica — Graph

°F

Podgorica Temperature Yesterday

Maximum temperature yesterday: 86 °F (at 3:30 PM)
Minimum temperature yesterday: 70 °F (at 4:00 AM)
Average temperature yesterday: 77 °F

High & Low Weather Summary for the Past Weeks

 TemperatureHumidityPressure
High95 °F (Aug 20, 4:30 PM)94% (Aug 18, 7:00 AM)30.18 "Hg (Aug 18, 7:00 AM)
Low63 °F (Aug 15, 6:30 AM)16% (Aug 14, 4:30 PM)29.77 "Hg (Aug 18, 5:00 PM)
Average79 °F45%29.95 "Hg
* Reported Aug 9 9:00 AM — Aug 24 9:30 AM, Podgorica, Weather by CustomWeather, © 2016

Note: Actual official high and low records may vary slightly from our data, if they occured in-between our weather recording intervals... More about our weather records

Advertising

Podgorica Weather History for the Previous 24 Hours

Scroll right to see more
 ConditionsComfort  
Time TempWeatherWind HumidityBarometerVisibility
9:30 AM
Wed, Aug 24
82 °FScattered clouds.7 mph40%30.01 "HgN/A
9:00 AM81 °FScattered clouds.13 mph42%30.01 "HgN/A
8:30 AM79 °FScattered clouds.12 mph45%30.01 "HgN/A
8:00 AM79 °FScattered clouds.10 mph45%30.01 "HgN/A
7:30 AM79 °FScattered clouds.12 mph45%30.01 "HgN/A
7:00 AM77 °FScattered clouds.9 mph47%30.01 "HgN/A
6:30 AM75 °FPassing clouds.10 mph50%30.01 "HgN/A
6:00 AM77 °FPassing clouds.12 mph44%29.98 "HgN/A
5:30 AM75 °FPassing clouds.10 mph47%29.98 "HgN/A
5:00 AM75 °FPassing clouds.9 mph47%29.98 "HgN/A
4:30 AM75 °FPassing clouds.12 mph47%29.98 "HgN/A
4:00 AM75 °FPassing clouds.13 mph47%30.01 "HgN/A
3:30 AM75 °FPassing clouds.8 mph47%30.01 "HgN/A
3:00 AM75 °FPassing clouds.10 mph47%30.01 "HgN/A
2:00 AM75 °FPassing clouds.10 mph47%30.01 "HgN/A
1:30 AM75 °FPassing clouds.10 mph47%30.01 "HgN/A
1:00 AM75 °FClear.12 mph47%30.01 "Hg10 mi
12:30 AM75 °FClear.14 mph47%30.01 "Hg10 mi
12:00 AM75 °FClear.13 mph47%30.01 "Hg10 mi
11:30 PM
Tue, Aug 23
75 °FPassing clouds.10 mph47%30.04 "HgN/A
11:00 PM75 °FPassing clouds.9 mph47%30.01 "HgN/A
10:30 PM77 °FPassing clouds.13 mph44%30.01 "HgN/A
10:00 PM77 °FPassing clouds.15 mph44%30.01 "HgN/A
9:30 PM77 °FClear.15 mph44%30.01 "Hg10 mi
9:00 PM77 °FPassing clouds.18 mph44%30.01 "HgN/A
8:30 PM77 °FPassing clouds.16 mph44%30.01 "HgN/A
8:00 PM77 °FPassing clouds.18 mph44%30.01 "HgN/A
7:30 PM79 °FPassing clouds.18 mph42%29.98 "HgN/A
7:00 PM81 °FPassing clouds.20 mph39%29.98 "HgN/A
6:30 PM81 °FPassing clouds.21 mph39%29.95 "HgN/A
6:00 PM82 °FPassing clouds.20 mph37%29.98 "HgN/A
5:30 PM82 °FSunny.21 mph37%29.95 "Hg10 mi
5:00 PM84 °FSunny.21 mph35%29.95 "Hg10 mi
4:30 PM84 °FPassing clouds.23 mph33%29.95 "HgN/A
4:00 PM84 °FScattered clouds.22 mph33%29.95 "HgN/A
3:30 PM86 °FScattered clouds.20 mph31%29.95 "HgN/A
3:00 PM84 °FScattered clouds.20 mph33%29.95 "HgN/A
2:30 PM84 °FScattered clouds.22 mph31%29.98 "HgN/A
2:00 PM82 °FScattered clouds.21 mph32%29.98 "HgN/A
1:30 PM82 °FScattered clouds.22 mph32%29.98 "HgN/A
1:00 PM81 °FScattered clouds.23 mph34%29.98 "HgN/A
12:30 PM79 °FScattered clouds.20 mph37%30.01 "HgN/A
12:00 PM79 °FScattered clouds.24 mph37%30.01 "HgN/A
11:30 AM79 °FScattered clouds.22 mph37%30.01 "HgN/A
11:00 AM79 °FPassing clouds.15 mph37%30.01 "HgN/A
10:30 AM79 °FPassing clouds.18 mph37%30.01 "HgN/A
10:00 AM77 °FPassing clouds.15 mph39%29.98 "HgN/A
Weather by CustomWeather, © 2016

See weather overviewHow to use our weather pages